| time (UTC) | temp F | wind direction | speed MPH | gust MPH | rain 1hr in | rain 24hr in | rain mn in | humidity % | barometer mb |
| 20260508080101 | 42 | 179 | 2.0 | 3.0 | 0.00 | 0.00 | 0.00 | 50 | 1010.4 |
| 20260508074546 | 43 | 182 | 1.0 | 3.0 | 0.00 | 0.00 | 0.00 | 48 | 1010.5 |
| 20260508073049 | 44 | 183 | 1.0 | 3.0 | 0.00 | 0.00 | 0.00 | 47 | 1010.6 |
| 20260508071545 | 45 | 180 | 1.0 | 3.0 | 0.00 | 0.00 | 0.00 | 46 | 1010.7 |
| 20260508070043 | 44 | 176 | 0.0 | 2.0 | 0.00 | 0.00 | 0.00 | 48 | 1010.7 |
| 20260508064540 | 44 | 178 | 1.0 | 2.0 | 0.00 | 0.00 | 0.00 | 47 | 1010.6 |
| 20260508063038 | 45 | 176 | 1.0 | 2.0 | 0.00 | 0.00 | 0.00 | 45 | 1010.8 |
| 20260508061539 | 46 | 172 | 1.0 | 2.0 | 0.00 | 0.00 | 0.00 | 44 | 1010.9 |
| 20260508060036 | 45 | 176 | 1.0 | 2.0 | 0.00 | 0.00 | 0.00 | 45 | 1011.0 |
| 20260508054541 | 45 | 175 | 1.0 | 3.0 | 0.00 | 0.00 | 0.00 | 46 | 1011.0 |
| 20260508053032 | 51 | 359 | 0.0 | 0.0 | 0.00 | 0.00 | 0.00 | 37 | 1011.1 |
| 20260508051534 | 50 | 359 | 0.0 | 0.0 | 0.00 | 0.00 | 0.00 | 36 | 1011.2 |
| 20260508050026 | 51 | 359 | 0.0 | 0.0 | 0.00 | 0.00 | 0.00 | 35 | 1011.2 |
| 20260508044526 | 51 | 359 | 0.0 | 0.0 | 0.00 | 0.00 | 0.00 | 36 | 1011.3 |
| 20260508043025 | 51 | 359 | 0.0 | 0.0 | 0.00 | 0.00 | 0.00 | 35 | 1011.3 |
| 20260508041525 | 50 | 359 | 0.0 | 0.0 | 0.00 | 0.00 | 0.00 | 39 | 1011.3 |
| 20260508040024 | 53 | 359 | 0.0 | 0.0 | 0.00 | 0.00 | 0.00 | 34 | 1011.4 |
| 20260508034530 | 53 | 352 | 0.0 | 0.0 | 0.00 | 0.00 | 0.00 | 35 | 1011.3 |
| 20260508033024 | 52 | 352 | 0.0 | 0.0 | 0.00 | 0.00 | 0.00 | 37 | 1011.2 |
| 20260508031526 | 53 | 352 | 0.0 | 0.0 | 0.00 | 0.00 | 0.00 | 33 | 1011.3 |
| 20260508030023 | 54 | 352 | 0.0 | 2.0 | 0.00 | 0.00 | 0.00 | 33 | 1011.2 |
| 20260508024525 | 54 | 351 | 2.0 | 3.0 | 0.00 | 0.00 | 0.00 | 32 | 1011.1 |
| 20260508023020 | 54 | 333 | 1.0 | 2.0 | 0.00 | 0.00 | 0.00 | 32 | 1011.0 |
| 20260508021520 | 55 | 333 | 0.0 | 1.0 | 0.00 | 0.00 | 0.00 | 32 | 1011.0 |
| 20260508020027 | 56 | 333 | 1.0 | 3.0 | 0.00 | 0.00 | 0.00 | 31 | 1010.8 |
| 20260508014519 | 57 | 333 | 2.0 | 4.0 | 0.00 | 0.00 | 0.00 | 30 | 1010.6 |
| 20260508013018 | 57 | 332 | 3.0 | 4.0 | 0.00 | 0.00 | 0.00 | 30 | 1010.5 |
| 20260508011520 | 57 | 330 | 3.0 | 4.0 | 0.00 | 0.00 | 0.00 | 30 | 1010.3 |
| 20260508010020 | 58 | 334 | 4.0 | 6.0 | 0.00 | 0.00 | 0.00 | 29 | 1010.2 |
| 20260508004516 | 58 | 329 | 5.0 | 7.0 | 0.00 | 0.00 | 0.00 | 28 | 1010.2 |
| 20260508003016 | 59 | 322 | 4.0 | 9.0 | 0.00 | 0.00 | 0.00 | 29 | 1010.3 |
| 20260508001515 | 59 | 334 | 8.0 | 12.0 | 0.00 | 0.00 | 0.00 | 28 | 1010.3 |
| 20260508000014 | 59 | 330 | 5.0 | 11.0 | 0.00 | 0.00 | 0.00 | 27 | 1010.4 |
| 20260507234513 | 60 | 293 | 5.0 | 9.0 | 0.00 | 0.00 | 0.00 | 27 | 1010.4 |
| 20260507233012 | 60 | 337 | 7.0 | 11.0 | 0.00 | 0.00 | 0.00 | 27 | 1010.4 |
| 20260507231511 | 61 | 321 | 5.0 | 10.0 | 0.00 | 0.00 | 0.00 | 27 | 1010.7 |
| 20260507230010 | 60 | 322 | 5.0 | 9.0 | 0.00 | 0.00 | 0.00 | 27 | 1010.6 |
| 20260507224512 | 60 | 302 | 5.0 | 11.0 | 0.00 | 0.00 | 0.00 | 27 | 1010.8 |
| 20260507223009 | 60 | 328 | 6.0 | 15.0 | 0.00 | 0.00 | 0.00 | 27 | 1010.9 |
| 20260507221508 | 59 | 329 | 7.0 | 11.0 | 0.00 | 0.00 | 0.00 | 27 | 1010.8 |
| 20260507220005 | 60 | 307 | 3.0 | 14.0 | 0.00 | 0.00 | 0.00 | 27 | 1011.0 |
| 20260507214510 | 59 | 288 | 6.0 | 12.0 | 0.00 | 0.00 | 0.00 | 27 | 1011.1 |
| 20260507200035 | 58 | 323 | 8.0 | 16.0 | 0.00 | 0.00 | 0.00 | 29 | 1011.8 |
| 20260507194535 | 57 | 306 | 5.0 | 14.0 | 0.00 | 0.00 | 0.00 | 31 | 1012.0 |
| 20260507193033 | 56 | 340 | 9.0 | 16.0 | 0.00 | 0.00 | 0.00 | 30 | 1012.3 |
| 20260507191532 | 58 | 302 | 8.0 | 13.0 | 0.00 | 0.00 | 0.00 | 31 | 1012.2 |
| 20260507190030 | 56 | 338 | 5.0 | 10.0 | 0.00 | 0.00 | 0.00 | 32 | 1012.2 |
| 20260507184528 | 56 | 341 | 8.0 | 14.0 | 0.00 | 0.00 | 0.00 | 31 | 1012.1 |
| 20260507183026 | 55 | 346 | 6.0 | 10.0 | 0.00 | 0.00 | 0.00 | 34 | 1012.4 |
| 20260507181523 | 54 | 350 | 5.0 | 12.0 | 0.00 | 0.00 | 0.00 | 33 | 1012.5 |
| 20260507180022 | 54 | 314 | 6.0 | 14.0 | 0.00 | 0.00 | 0.00 | 33 | 1012.5 |
| 20260507174519 | 54 | 26 | 3.0 | 6.0 | 0.00 | 0.00 | 0.00 | 36 | 1012.6 |
| 20260507173030 | 54 | 323 | 4.0 | 12.0 | 0.00 | 0.00 | 0.00 | 35 | 1012.8 |
| 20260507171516 | 54 | 332 | 5.0 | 10.0 | 0.00 | 0.00 | 0.00 | 38 | 1012.9 |
| 20260507170014 | 53 | 226 | 6.0 | 10.0 | 0.00 | 0.00 | 0.00 | 39 | 1012.9 |
| 20260507164512 | 52 | 341 | 2.0 | 10.0 | 0.00 | 0.00 | 0.00 | 41 | 1013.1 |
| 20260507163010 | 52 | 26 | 2.0 | 10.0 | 0.00 | 0.00 | 0.00 | 43 | 1013.2 |
| 20260507161519 | 51 | 251 | 2.0 | 9.0 | 0.00 | 0.00 | 0.00 | 43 | 1013.1 |
| 20260507160006 | 51 | 1 | 3.0 | 10.0 | 0.00 | 0.00 | 0.00 | 46 | 1013.2 |
| 20260507154506 | 51 | 337 | 3.0 | 9.0 | 0.00 | 0.00 | 0.00 | 47 | 1013.2 |
| 20260507153003 | 50 | 332 | 5.0 | 11.0 | 0.00 | 0.00 | 0.00 | 47 | 1013.3 |
| 20260507151502 | 50 | 350 | 3.0 | 10.0 | 0.00 | 0.00 | 0.00 | 47 | 1013.4 |
| 20260507150001 | 49 | 349 | 3.0 | 7.0 | 0.00 | 0.00 | 0.00 | 50 | 1013.3 |
| 20260507144617 | 50 | 333 | 4.0 | 8.0 | 0.00 | 0.00 | 0.00 | 47 | 1013.4 |
| 20260507143058 | 49 | 37 | 2.0 | 6.0 | 0.00 | 0.00 | 0.00 | 51 | 1013.5 |
| 20260507141615 | 48 | 18 | 2.0 | 11.0 | 0.00 | 0.00 | 0.00 | 52 | 1013.6 |
| 20260507140051 | 48 | 9 | 4.0 | 8.0 | 0.00 | 0.00 | 0.00 | 52 | 1013.6 |
| 20260507134550 | 48 | 47 | 3.0 | 7.0 | 0.00 | 0.00 | 0.00 | 51 | 1013.6 |
| 20260507133048 | 47 | 65 | 2.0 | 5.0 | 0.00 | 0.00 | 0.00 | 52 | 1013.7 |
| 20260507131545 | 46 | 31 | 4.0 | 8.0 | 0.00 | 0.00 | 0.00 | 54 | 1014.1 |
| 20260507130039 | 44 | 51 | 3.0 | 6.0 | 0.00 | 0.00 | 0.00 | 59 | 1014.1 |
| 20260507124535 | 41 | 60 | 4.0 | 8.0 | 0.00 | 0.00 | 0.00 | 64 | 1014.3 |
| 20260507123031 | 38 | 35 | 4.0 | 6.0 | 0.00 | 0.00 | 0.00 | 67 | 1014.3 |
| 20260507121531 | 38 | 31 | 2.0 | 5.0 | 0.00 | 0.00 | 0.00 | 67 | 1014.4 |
| 20260507120029 | 37 | 13 | 0.0 | 4.0 | 0.00 | 0.00 | 0.00 | 69 | 1014.7 |
| 20260507114529 | 36 | 10 | 2.0 | 5.0 | 0.00 | 0.00 | 0.00 | 69 | 1014.4 |
| 20260507113028 | 36 | 36 | 4.0 | 6.0 | 0.00 | 0.00 | 0.00 | 68 | 1013.8 |
| 20260507111539 | 38 | 43 | 3.0 | 4.0 | 0.00 | 0.00 | 0.00 | 67 | 1013.8 |
| 20260507110026 | 38 | 68 | 1.0 | 4.0 | 0.00 | 0.00 | 0.00 | 66 | 1013.6 |
| 20260507104524 | 37 | 44 | 3.0 | 5.0 | 0.00 | 0.00 | 0.00 | 67 | 1014.0 |
| 20260507103023 | 37 | 52 | 2.0 | 4.0 | 0.00 | 0.00 | 0.00 | 67 | 1013.9 |
| 20260507101522 | 37 | 43 | 3.0 | 5.0 | 0.00 | 0.00 | 0.00 | 67 | 1014.1 |
| 20260507100020 | 36 | 44 | 3.0 | 5.0 | 0.00 | 0.00 | 0.00 | 69 | 1014.2 |
| 20260507094518 | 37 | 58 | 1.0 | 3.0 | 0.00 | 0.00 | 0.00 | 66 | 1014.3 |
| 20260507093021 | 37 | 144 | 2.0 | 3.0 | 0.00 | 0.00 | 0.00 | 66 | 1014.1 |
| 20260507091525 | 38 | 148 | 2.0 | 3.0 | 0.00 | 0.00 | 0.00 | 66 | 1014.1 |
| 20260507090018 | 38 | 148 | 1.0 | 3.0 | 0.00 | 0.00 | 0.00 | 66 | 1014.4 |
| 20260507084522 | 38 | 148 | 0.0 | 3.0 | 0.00 | 0.00 | 0.00 | 69 | 1014.6 |
| 20260507083012 | 38 | 148 | 0.0 | 2.0 | 0.00 | 0.00 | 0.00 | 73 | 1014.7 |
| 20260507081519 | 38 | 143 | 0.0 | 2.0 | 0.00 | 0.00 | 0.00 | 66 | 1014.9 |